Location: ????????
(55.8351°N, 38.7040°E)
Time: 05:46:04
(UTC+00:00)

Daily predictions for brighter satellites

Satellite Brightness Start Highest point End
(mag) Time Altitude Azimuth Time Altitude Azimuth Time Altitude Azimuth
Cosmos 2221 3.0 00:03:42 32° WSW 00:05:05 43° WNW 00:09:10 10° N
COSMOS 2441 4.4 00:00:53 10° NNE 00:05:49 89° E 00:08:43 25° SSW
Cosmos 2333 Rocket 2.4 00:04:54 26° WSW 00:08:04 61° NW 00:13:42 10° NNE
Lacrosse 5 2.0 00:05:37 29° SW 00:08:07 65° SSE 00:13:12 10° ENE
ALOS 2.9 00:03:58 10° NNE 00:08:31 51° E 00:12:16 15° S
NOSS 3-1 (C) 4.2 00:02:01 10° NW 00:08:36 70° NNE 00:16:51 10° ESE
Cosmos 972 Rocket 4.0 00:07:57 27° SSW 00:11:01 78° WNW 00:16:07 10° NNE
Cosmos 44 Rocket 3.5 00:10:18 27° SSW 00:13:09 74° SE 00:18:19 10° NE
Cosmos 2360 Rocket 2.7 00:09:55 23° WSW 00:13:16 51° NW 00:18:47 10° NNE
Lacrosse 4 Rocket 3.2 00:15:03 12° WNW 00:17:58 23° NNW 00:21:13 10° NNE
Cosmos 2278 Rocket 2.2 00:13:06 10° NW 00:18:45 64° WSW 00:24:21 10° SSE
Cosmos 1743 4.0 00:16:37 10° NW 00:19:33 22° W 00:19:41 22° W
NOSS 3-4 (A) 3.3 00:16:26 24° SW 00:20:01 89° NW 00:26:24 10° NE
NOSS 3-4 (C) 3.3 00:16:29 24° SW 00:20:04 90° SE 00:26:28 10° NE
Sich 1 2.9 00:16:20 10° NNW 00:20:35 81° W 00:24:32 12° S
Cosmos 1733 3.1 00:18:10 10° N 00:21:48 77° ENE 00:25:24 10° SSE
IDEFIX/ARIANE 42P 3.0 00:17:44 10° N 00:22:43 48° WNW 00:25:43 23° SW
Cosmos 2322 Rocket 3.1 00:19:32 18° WSW 00:23:19 39° NW 00:28:36 10° NNE
NOSS 2-3 (C) 4.4 00:18:58 10° NW 00:24:15 58° SW 00:31:25 10° SSE
BlueWalker 3 2.5 00:23:38 29° WSW 00:24:43 35° SSW 00:28:14 10° SE
SAR-Lupe-1 4.0 00:21:17 10° NNE 00:24:56 89° WNW 00:26:59 24° SSW
MSX 4.1 00:21:34 10° NNE 00:27:14 56° WNW 00:31:06 20° SW
Cosmos 1743 Rocket 3.4 00:23:51 10° NNW 00:28:12 72° W 00:32:27 10° S
NOSS 2-3 (D) 4.5 00:24:09 10° NW 00:29:23 57° SW 00:36:29 10° SSE
Cosmos 2219 Rocket 2.3 00:27:21 22° SW 00:31:01 64° NW 00:36:37 10° NNE
Cosmos 1538 Rocket 4.2 00:26:59 18° SSW 00:31:04 75° ESE 00:36:24 10° NNE
ATLAS 3B R/B 3.6 00:23:37 10° NW 00:31:15 62° NNE 00:39:01 10° ESE
Cosmos 192 4.4 00:27:30 10° NW 00:32:18 54° WSW 00:37:04 10° S
Gbstr 26 Del rocket 3.9 00:31:34 21° SSW 00:33:21 30° SSE 00:36:44 10° E
Cosmos 1536 3.2 00:30:07 10° NNW 00:33:47 40° W 00:35:46 22° SSW
Meteor 2-10 4.2 00:28:28 10° NNW 00:34:02 74° W 00:39:43 10° S
Cosmos 1420 Rocket 4.1 00:29:53 10° NNW 00:35:09 84° ENE 00:40:27 10° SSE
Cosmos 1633 Rocket 4.0 00:31:10 10° N 00:35:25 50° ENE 00:39:39 10° SSE
SAR-Lupe-4 3.6 00:32:32 10° N 00:36:04 65° WNW 00:38:09 23° SSW
SWAS 4.3 00:32:12 10° NW 00:36:25 82° SW 00:40:38 10° SSE
COBE Rocket 4.3 00:32:20 10° N 00:36:49 44° WNW 00:39:40 20° SW
NOSS 7 (E) 4.4 00:34:11 10° WNW 00:37:07 45° SW 00:40:23 10° SSE
NOSS 2-2 (E) 4.3 00:33:12 10° WNW 00:37:12 38° SW 00:42:34 10° SSE
USA 290 4.4 00:34:42 10° NNW 00:37:29 29° NE 00:40:14 10° ESE
Cosmos 1340 Rocket 4.5 00:34:18 10° SSE 00:37:42 31° E 00:41:10 10° NNE
Cosmos 2056 Rocket 3.7 00:33:14 10° NNW 00:38:38 79° ENE 00:44:03 10° SSE
Cosmos 1805 3.4 00:35:53 10° N 00:39:36 69° ENE 00:43:18 10° SSE
GP-B 3.2 00:35:22 10° N 00:39:45 61° W 00:43:17 15° SSW
SL-16 R/B 3.7 00:35:17 10° W 00:40:07 28° NNW 00:45:00 10° NNE
Meteor 1-28 Rocket 4.4 00:45:44 21° WSW 00:46:41 23° W 00:49:40 10° NW
Cosmos 1092 Rocket 4.1 00:42:37 10° S 00:48:45 83° E 00:54:57 10° NNE
ADEOS II 2.4 00:43:59 10° N 00:49:07 53° WNW 00:53:12 16° SW
CZ-2C R/B 3.4 00:45:17 10° NNE 00:50:18 48° E 00:55:17 10° S
FENGYUN 3A 3.9 00:45:45 10° NNE 00:51:06 59° WNW 00:55:38 14° SW
Cosmos 1624 Rocket 4.0 00:45:53 10° NNW 00:51:11 88° WSW 00:56:24 10° SSE
NOSS 2-2 (D) 4.3 00:47:36 10° WNW 00:51:31 38° SW 00:56:48 10° SSE
Cosmos 1726 3.2 00:51:31 10° NW 00:53:59 21° W 00:54:45 19° WSW
Meteor 1-19 Rocket 4.4 00:48:30 10° SSW 00:54:25 89° W 01:00:31 10° NNE
Cosmos 2026 Rocket 4.1 00:50:27 10° S 00:56:46 89° W 01:03:12 10° NNE
SL-16 R/B 3.2 00:51:35 11° SSW 00:57:00 34° W 01:02:38 10° NNW
Okean 1 3.3 00:54:37 16° SSW 00:57:34 57° WNW 01:01:21 10° N
CZ-2D R/B 3.0 00:55:27 10° N 01:00:15 35° WNW 01:04:21 14° WSW
ATLAS 5 CENTAUR R/B 1.9 00:56:43 10° NW 01:01:16 90° W 01:06:57 10° SE
Cosmos 1461 3.8 00:59:19 10° WNW 01:02:24 23° WSW 01:05:27 10° S
Envisat 3.2 01:02:03 10° NNE 01:07:10 78° ESE 01:12:15 10° SSW
Cosmos 923 Rocket 4.3 01:02:23 10° SSW 01:07:34 69° ESE 01:12:50 10° NNE
Cosmos 1151 Rocket 3.0 01:04:27 10° SSW 01:08:44 77° WNW 01:13:06 10° N
RESURS DK-1 2.3 01:06:15 13° SW 01:09:50 88° WNW 01:13:56 10° NE
Intercosmos 25 Rocket 3.2 01:15:16 10° NNW 01:18:25 56° W 01:22:24 10° S
Cosmos 1766 3.6 01:15:26 10° N 01:19:08 65° ENE 01:22:48 10° SSE
Cosmos 1943 Rocket 2.6 01:14:07 10° NW 01:19:25 42° WSW 01:24:41 10° S
Cosmos 921 Rocket 4.2 01:15:43 10° S 01:19:45 43° ESE 01:23:53 10° NE
Cosmos 1371 Rocket 4.1 01:14:47 10° NW 01:19:54 56° WSW 01:25:02 10° S
ATLAS 2AS CENTAUR R/B 4.1 01:13:27 10° S 01:20:03 37° ESE 01:26:27 10° ENE
Meteor 1-27 Rocket 3.9 01:15:04 10° SSW 01:20:47 59° WNW 01:26:24 10° N
Cosmos 1470 Rocket 3.7 01:16:52 10° N 01:21:16 84° ENE 01:25:41 10° SSE
Cosmos 1975 2.9 01:18:54 10° NNW 01:22:40 52° W 01:26:25 10° S
Thor Agena Rocket 3.7 01:18:01 10° NNE 01:23:06 76° ESE 01:28:08 10° SSW
NOAA 11 4.3 01:19:30 10° NNE 01:24:59 88° ESE 01:30:28 10° SSW
H-2A R/B 3.7 01:22:02 10° NNE 01:26:35 35° E 01:31:11 10° SSE
Meteor 2-4 Rocket 3.8 01:21:15 10° S 01:26:41 82° E 01:32:17 10° NNE
Cosmos 1340 2.6 01:24:49 10° NNW 01:28:09 47° W 01:31:27 10° S
COSMOS 2428 3.1 01:22:41 10° WSW 01:28:12 53° NW 01:33:48 10° NNE
Cosmos 2297 3.8 01:22:31 10° NW 01:28:19 89° NE 01:34:05 10° SSE
CZ-4 R/B 3.9 01:23:39 10° NNE 01:28:25 64° WNW 01:33:04 10° SSW
CZ-2C R/B 4.5 01:32:05 10° WSW 01:34:14 12° W 01:36:21 10° WNW
Cosmos 1484 Rocket 4.4 01:31:03 10° NNE 01:34:24 34° E 01:37:43 10° SSE
CZ-2C R/B 4.1 01:30:12 10° N 01:34:25 28° WNW 01:38:49 10° WSW
Cosmos 1666 Rocket 4.0 01:30:29 10° NNW 01:34:45 44° W 01:38:58 10° SSW
S3M 4.1 01:29:18 10° NNW 01:35:29 88° E 01:41:42 10° S
NOSS 3-1 (A) 4.0 01:29:05 10° NW 01:35:54 89° SW 01:44:22 10° SE
Cosmos 2237 Rocket 2.3 01:30:19 10° SW 01:36:00 85° NW 01:41:45 10° NE
Cosmos 1980 3.8 01:31:33 10° SW 01:37:14 81° NW 01:42:57 10° NNE
Cosmos 2369 Rocket 2.4 01:31:56 10° NW 01:37:37 82° NE 01:43:13 10° SE
Cosmos 1626 2.1 01:36:23 10° S 01:39:40 70° E 01:42:58 10° NNE
BREEZE-M DEB (TANK) 2.2 01:38:12 10° SW 01:40:19 31° SSE 01:42:13 10° E
Resurs 1-4 Rocket 3.7 01:37:11 10° N 01:40:57 20° NW 01:44:42 10° W
USA 229 DEB 4.4 01:36:51 10° NW 01:43:54 66° NNE 01:51:41 10° ESE
USA 229 4.4 01:36:59 10° NW 01:44:02 66° NNE 01:51:48 10° ESE
USA 215 3.4 01:37:27 10° E 01:44:02 82° N 01:50:36 10° W
ALOS 3.3 01:41:32 10° N 01:45:34 30° WNW 01:49:35 10° WSW
Cosmos 2112 Rocket 4.2 01:41:46 10° SSW 01:47:08 87° ESE 01:52:32 10° NNE
